Location: Eyeline Observatory
(43.2182°N, 78.8632°W)
Time: 19:29:34
(UTC-04:00)

Vanguard 2 - Pass Details

Date: 26 January 2018
Orbit: 553 x 2940 km, 32.9° (Epoch: 26 May)

Event Time Altitude Azimuth Distance (km) Brightness Sun altitude
Rises 01:07:11 0° 208° (SSW) 3,098 - -64.1°
Reaches altitude 10° 01:09:59 10° 187° (S) 2,419 - -63.9°
Maximum altitude 01:13:47 18° 145° (SE) 2,253 - -63.7°
Drops below altitude 10° 01:18:45 10° 106° (ESE) 3,311 - -63.3°
Exits shadow 01:23:07 - 91° (E) 4,653 11.7 -62.9°
Sets 01:23:34 0° 90° (E) 4,798 11.8 -62.8°
